Voltar ao catálogo

STARLINK-5120

AtivoComunicaçõesVLEO
NORAD 53982·PAYLOAD·🇺🇸 United States

Lançado Oct 5, 2022 de Vandenberg Space Force Base

Loading…

Próximas Passagens (próximas 24 horas)

TLE

AtualizadoSource: CelesTrak SupGP

Época: Sep 15, 2026, 01:48 UTC

1 53982C 22125U   26258.07548611  .00708650  00000+0  31640-1 0  2582
2 53982  53.1594  82.9323 0001153  82.1123 100.4139 15.20490324    19

Acompanhe STARLINK-5120 em tempo real com AllMySat

Download on the App Store